Weather History for KIWD - July, 2013

Change the Weather History Date:

Wednesday, July 10, 2013

  Actual Average Record
Temperature  
Mean Temperature 63 °F -  
Max Temperature 71 °F 74 °F 89 °F (2005)
Min Temperature 55 °F 53 °F 39 °F (2006)
Degree Days  
Heating Degree Days 2    
Growing Degree Days 13 (Base 50)    
Moisture  
Dew Point 53 °F    
Average Humidity 71    
Maximum Humidity 88    
Minimum Humidity 46    
Precipitation  
Precipitation 0.00 in - - ()
Sea Level Pressure  
Sea Level Pressure 29.93 in    
Wind  
Wind Speed 10 mph (WNW)    
Max Wind Speed 20 mph    
Max Gust Speed 25 mph    
Visibility 10 miles    
Events      
Averages and records for this station are not official NWS values.
T = Trace of Precipitation, MM = Missing Value Source: NWS Daily Summary

Daily Weather History Graph

Daily Weather History Graph

Search for Another Location

Airport or City:

Trip Planner

Search our weather history database for the weather conditions in past years. The results will help you decide how hot, cold, wet, or windy it might be!

Date:

Astronomy

Jul. 10, 2013 Rise Set
Actual Time 5:18 AM CDT 8:53 PM CDT
Civil Twilight 4:40 AM CDT 9:31 PM CDT
Nautical Twilight 3:49 AM CDT 10:21 PM CDT
Astronomical Twilight 2:40 AM CDT 11:29 PM CDT
Moon 7:50 AM CDT (7/10) 9:49 PM CDT (7/10)
Length of Visible Light 16h 51m
Length of Day
15h 35m
Waxing Crescent, 5% of the Moon is Illuminated
Jul 10
Waxing Crescent
Jul 15
First Quarter
Jul 22
Full
Jul 29
Last Quarter
Aug 6
New

Hourly Weather History & Observations

Time (CDT) Temp. Dew Point Humidity Pressure Visibility Wind Dir Wind Speed Gust Speed Precip Events Conditions
12:15 AM 62.6 °F 57.2 °F 82% 29.82 in 10.0 mi WNW 9.2 mph - N/A   Mostly Cloudy
12:35 AM 62.6 °F 57.2 °F 82% 29.82 in 10.0 mi WNW 9.2 mph - N/A   Partly Cloudy
12:55 AM 62.6 °F 57.2 °F 82% 29.82 in 10.0 mi West 10.4 mph - N/A   Mostly Cloudy
1:15 AM 60.8 °F 55.4 °F 82% 29.82 in 10.0 mi West 9.2 mph - N/A   Partly Cloudy
1:35 AM 60.8 °F 55.4 °F 82% 29.83 in 10.0 mi West 11.5 mph - N/A   Clear
1:55 AM 60.8 °F 55.4 °F 82% 29.82 in 10.0 mi West 9.2 mph - N/A   Partly Cloudy
2:15 AM 60.8 °F 55.4 °F 82% 29.83 in 10.0 mi West 11.5 mph - N/A   Scattered Clouds
2:35 AM 60.8 °F 53.6 °F 77% 29.84 in 10.0 mi West 9.2 mph - N/A   Mostly Cloudy
2:55 AM 59.0 °F 53.6 °F 82% 29.84 in 10.0 mi West 9.2 mph - N/A   Scattered Clouds
3:15 AM 59.0 °F 53.6 °F 82% 29.84 in 10.0 mi West 8.1 mph - N/A   Clear
3:35 AM 57.2 °F 53.6 °F 88% 29.84 in 10.0 mi West 9.2 mph - N/A   Scattered Clouds
3:55 AM 59.0 °F 53.6 °F 82% 29.84 in 10.0 mi West 10.4 mph - N/A   Mostly Cloudy
4:15 AM 57.2 °F 53.6 °F 88% 29.85 in 10.0 mi West 10.4 mph - N/A   Scattered Clouds
4:35 AM 57.2 °F 53.6 °F 88% 29.86 in 10.0 mi West 12.7 mph - N/A   Clear
4:55 AM 57.2 °F 53.6 °F 88% 29.86 in 10.0 mi West 10.4 mph - N/A   Clear
5:15 AM 57.2 °F 51.8 °F 82% 29.87 in 10.0 mi West 10.4 mph - N/A   Clear
5:35 AM 57.2 °F 51.8 °F 82% 29.88 in 10.0 mi West 11.5 mph - N/A   Clear
5:55 AM 57.2 °F 51.8 °F 82% 29.88 in 10.0 mi West 11.5 mph - N/A   Clear
6:15 AM 57.2 °F 51.8 °F 82% 29.89 in 10.0 mi West 11.5 mph - N/A   Clear
6:35 AM 57.2 °F 51.8 °F 82% 29.89 in 10.0 mi West 11.5 mph - N/A   Partly Cloudy
6:55 AM 57.2 °F 51.8 °F 82% 29.89 in 10.0 mi West 10.4 mph - N/A   Scattered Clouds
7:15 AM 57.2 °F 53.6 °F 88% 29.90 in 10.0 mi West 10.4 mph - N/A   Clear
7:35 AM 57.2 °F 53.6 °F 88% 29.90 in 10.0 mi WNW 11.5 mph 16.1 mph N/A   Partly Cloudy
7:55 AM 59.0 °F 53.6 °F 82% 29.90 in 10.0 mi WNW 13.8 mph 17.3 mph N/A   Scattered Clouds
8:15 AM 60.8 °F 53.6 °F 77% 29.91 in 10.0 mi WNW 11.5 mph - N/A   Partly Cloudy
8:35 AM 60.8 °F 53.6 °F 77% 29.92 in 10.0 mi WNW 12.7 mph 18.4 mph N/A   Scattered Clouds
8:55 AM 60.8 °F 53.6 °F 77% 29.92 in 10.0 mi WNW 12.7 mph - N/A   Scattered Clouds
9:15 AM 62.6 °F 53.6 °F 72% 29.93 in 10.0 mi WNW 15.0 mph 19.6 mph N/A   Mostly Cloudy
9:35 AM 62.6 °F 53.6 °F 72% 29.93 in 10.0 mi WNW 13.8 mph 23.0 mph N/A   Scattered Clouds
9:55 AM 62.6 °F 53.6 °F 72% 29.94 in 10.0 mi NW 12.7 mph 21.9 mph N/A   Mostly Cloudy
10:15 AM 62.6 °F 53.6 °F 72% 29.94 in 10.0 mi WNW 15.0 mph 21.9 mph N/A   Mostly Cloudy
10:35 AM 62.6 °F 53.6 °F 72% 29.94 in 10.0 mi WNW 16.1 mph 21.9 mph N/A   Mostly Cloudy
10:55 AM 64.4 °F 53.6 °F 68% 29.95 in 10.0 mi WNW 15.0 mph 21.9 mph N/A   Mostly Cloudy
11:15 AM 64.4 °F 53.6 °F 68% 29.95 in 10.0 mi WNW 16.1 mph 23.0 mph N/A   Mostly Cloudy
11:35 AM 64.4 °F 53.6 °F 68% 29.95 in 10.0 mi WNW 19.6 mph 25.3 mph N/A   Mostly Cloudy
11:55 AM 64.4 °F 53.6 °F 68% 29.96 in 10.0 mi NW 18.4 mph 25.3 mph N/A   Scattered Clouds
12:15 PM 66.2 °F 53.6 °F 64% 29.96 in 10.0 mi NW 17.3 mph 21.9 mph N/A   Partly Cloudy
12:35 PM 66.2 °F 51.8 °F 60% 29.97 in 10.0 mi NW 18.4 mph 23.0 mph N/A   Partly Cloudy
12:55 PM 66.2 °F 53.6 °F 64% 29.97 in 10.0 mi WNW 17.3 mph 24.2 mph N/A   Clear
1:15 PM 68.0 °F 51.8 °F 56% 29.97 in 10.0 mi NW 18.4 mph 24.2 mph N/A   Clear
1:35 PM 68.0 °F 51.8 °F 56% 29.97 in 10.0 mi WNW 15.0 mph 25.3 mph N/A   Clear
1:55 PM 68.0 °F 51.8 °F 56% 29.96 in 10.0 mi NW 15.0 mph 25.3 mph N/A   Clear
2:15 PM 69.8 °F 51.8 °F 53% 29.96 in 10.0 mi WNW 16.1 mph 23.0 mph N/A   Clear
2:35 PM 69.8 °F 51.8 °F 53% 29.96 in 10.0 mi WNW 15.0 mph 24.2 mph N/A   Clear
2:55 PM 69.8 °F 51.8 °F 53% 29.97 in 10.0 mi West 11.5 mph 19.6 mph N/A   Clear
3:15 PM 69.8 °F 53.6 °F 56% 29.96 in 10.0 mi NW 10.4 mph - N/A   Clear
3:35 PM 69.8 °F 51.8 °F 53% 29.96 in 10.0 mi WNW 12.7 mph 20.7 mph N/A   Clear
3:55 PM 69.8 °F 51.8 °F 53% 29.96 in 10.0 mi NW 8.1 mph - N/A   Clear
4:15 PM 69.8 °F 51.8 °F 53% 29.96 in 10.0 mi NW 11.5 mph 19.6 mph N/A   Partly Cloudy
4:35 PM 71.6 °F 51.8 °F 50% 29.96 in 10.0 mi WNW 12.7 mph 18.4 mph N/A   Clear
4:55 PM 71.6 °F 51.8 °F 50% 29.95 in 10.0 mi WNW 9.2 mph 16.1 mph N/A   Clear
5:15 PM 71.6 °F 51.8 °F 50% 29.95 in 10.0 mi WNW 9.2 mph - N/A   Clear
5:35 PM 71.6 °F 51.8 °F 50% 29.95 in 10.0 mi WNW 12.7 mph - N/A   Clear
5:55 PM 71.6 °F 50.0 °F 46% 29.95 in 9.0 mi NW 11.5 mph - N/A   Clear
6:15 PM 71.6 °F 51.8 °F 50% 29.95 in 10.0 mi WNW 11.5 mph - N/A   Clear
6:35 PM 71.6 °F 50.0 °F 46% 29.96 in 10.0 mi WNW 6.9 mph - N/A   Clear
6:55 PM 69.8 °F 51.8 °F 53% 29.96 in 8.0 mi WNW 5.8 mph - N/A   Clear
7:15 PM 69.8 °F 50.0 °F 49% 29.96 in 10.0 mi WNW 5.8 mph - N/A   Clear
7:35 PM 69.8 °F 51.8 °F 53% 29.96 in 10.0 mi WNW 5.8 mph - N/A   Clear
7:55 PM 68.0 °F 51.8 °F 56% 29.96 in 10.0 mi WNW 3.5 mph - N/A   Clear
8:15 PM 66.2 °F 53.6 °F 64% 29.96 in 10.0 mi Calm Calm - N/A   Clear
8:35 PM 64.4 °F 55.4 °F 73% 29.96 in 10.0 mi Calm Calm - N/A   Clear
8:55 PM 62.6 °F 53.6 °F 72% 29.97 in 10.0 mi Calm Calm - N/A   Clear
9:15 PM 60.8 °F 55.4 °F 82% 29.97 in 10.0 mi Calm Calm - N/A   Clear
9:35 PM 59.0 °F 51.8 °F 77% 29.98 in 10.0 mi Calm Calm - N/A   Clear
9:55 PM 57.2 °F 51.8 °F 82% 29.99 in 10.0 mi Calm Calm - N/A   Clear
10:15 PM 59.0 °F 51.8 °F 77% 29.99 in 10.0 mi Calm Calm - N/A   Clear
10:35 PM 57.2 °F 51.8 °F 82% 29.99 in 10.0 mi Calm Calm - N/A   Clear
10:55 PM 57.2 °F 51.8 °F 82% 29.99 in 10.0 mi Calm Calm - N/A   Clear
11:15 PM 57.2 °F 51.8 °F 82% 30.00 in 10.0 mi Calm Calm - N/A   Clear
11:35 PM 55.4 °F 51.8 °F 88% 30.00 in 10.0 mi Calm Calm - N/A   Clear
11:55 PM 55.4 °F 51.8 °F 88% 30.01 in 10.0 mi Calm Calm - N/A   Clear